Location: Beetenbrück
(52.8113°N, 9.5946°E)
Time: 22:29:34
(UTC+00:00)

Cosmos 1025 Rocket - Pass Details

Date: 14 April 2026
Orbit: 586 x 609 km, 82.5° (Epoch: 12 May)

Event Time Altitude Azimuth Distance (km) Brightness Sun altitude
Rises 21:14:29 0° 343° (NNW) 2,830 7.8 -21.9°
Reaches altitude 10° 21:16:48 10° 335° (NNW) 1,925 6.7 -22.1°
Maximum altitude 21:20:43 37° 268° (W) 927 4.1 -22.4°
Enters shadow 21:22:03 29° 229° (SW) 1,092 4.2 -22.5°
